Location: Castillon
(43.0896°N, 0.2156°E)
Time: 06:31:59
(UTC+00:00)

Cosmos 2228 - Visible Passes

Search period start: 26 October 2021 00:00
Search period end: 05 November 2021 00:00
Orbit: 589 x 617 km, 82.5° (Epoch: 25 October)

Date Brightness Start Highest point End Pass type
(mag) Time Alt. Az. Time Alt. Az. Time Alt. Az.
26 Oct 6.1 04:38:07 10° NE 04:40:22 14° ENE 04:42:35 10° E visible
26 Oct 2.9 18:43:11 10° S 18:47:34 82° E 18:51:59 10° N visible
27 Oct 5.7 04:49:32 10° NNE 04:52:54 21° ENE 04:56:13 10° ESE visible
27 Oct 3.5 18:55:33 10° SSW 18:59:53 60° W 19:04:15 10° N visible
28 Oct 4.8 05:01:23 10° N 05:05:21 34° ENE 05:09:16 10° SE visible
28 Oct 4.3 17:31:50 10° SE 17:35:01 20° E 17:38:12 10° NE visible
28 Oct 4.6 19:08:12 10° SW 19:12:16 36° WNW 19:16:22 10° N visible
29 Oct 3.8 05:13:28 10° N 05:17:45 55° E 05:21:57 10° SSE visible
29 Oct 3.8 17:43:17 10° SSE 17:47:10 31° E 17:51:04 10° NNE visible
29 Oct 5.4 19:21:12 10° SW 19:24:43 23° WNW 19:28:16 10° NNW visible
30 Oct 3.0 05:25:43 10° N 05:30:05 87° WSW 05:34:21 10° S visible
30 Oct 3.2 17:55:07 10° S 17:59:22 52° E 18:03:39 10° NNE visible
30 Oct 6.0 19:34:42 10° WSW 19:37:14 15° WNW 19:39:46 10° NNW visible
31 Oct 6.1 04:02:04 10° NE 04:04:26 14° ENE 04:06:49 10° ESE visible
31 Oct 3.1 05:38:07 10° NNW 05:42:20 51° W 05:46:29 10° S visible
31 Oct 3.0 18:07:14 10° S 18:11:38 87° E 18:16:03 10° N visible
01 Nov 5.4 04:13:32 10° NNE 04:16:58 22° ENE 04:20:21 10° SE visible
01 Nov 3.8 05:50:43 10° NNW 05:54:31 31° W 05:58:17 10° SSW visible
01 Nov 3.7 18:19:38 10° SSW 18:23:57 56° W 18:28:18 10° N visible
02 Nov 4.6 04:25:25 10° N 04:29:25 35° ENE 04:33:21 10° SE visible
02 Nov 4.3 06:03:35 10° NW 06:06:40 19° W 06:09:43 10° SW visible
02 Nov 4.7 18:32:20 10° SW 18:36:21 34° WNW 18:40:23 10° N visible
03 Nov 3.5 04:37:31 10° N 04:41:48 59° E 04:46:00 10° SSE visible
03 Nov 5.6 18:45:23 10° WSW 18:48:48 22° WNW 18:52:14 10° NNW visible
04 Nov 2.8 04:49:47 10° N 04:54:06 82° W 04:58:22 10° S visible
04 Nov 3.2 17:19:08 10° S 17:23:25 55° E 17:27:43 10° NNE visible
04 Nov 6.1 18:58:59 10° W 19:01:19 14° WNW 19:03:40 10° NW visible
